GW5447 Weather Reports


Display with metric or nautical units.
time (UTC)temp
F
wind
direction
speed
MPH
gust
MPH
rain 1hr
in
rain 24hr
in
rain mn
in
humidity
%
barometer
mb
20260510225252 63 249 2.0 3.0 0.00 0.00 0.00 42 1018.1
20260510224748 62 353 1.0 6.0 0.00 0.00 0.00 42 1017.8
20260510224244 63 2 2.0 3.0 0.00 0.00 0.00 41 1017.8
20260510223742 63 272 0.0 2.0 0.00 0.00 0.00 43 1017.9
20260510223239 64 255 2.0 3.0 0.00 0.00 0.00 41 1018.0
20260510222737 65 242 0.0 4.0 0.00 0.00 0.00 41 1017.9
20260510222233 65 330 2.0 4.0 0.00 0.00 0.00 41 1018.1
20260510221728 64 285 2.0 3.0 0.00 0.00 0.00 41 1017.8
20260510221226 64 250 2.0 3.0 0.00 0.00 0.00 41 1018.0
20260510220722 64 263 0.0 1.0 0.00 0.00 0.00 42 1018.0
20260510220217 64 161 0.0 2.0 0.00 0.00 0.00 41 1017.9
20260510215715 64 237 1.0 2.0 0.00 0.00 0.00 41 1017.8
20260510215213 64 298 1.0 2.0 0.00 0.00 0.00 41 1017.7
20260510214709 65 277 1.0 4.0 0.00 0.00 0.00 40 1017.5
20260510214207 65 71 2.0 2.0 0.00 0.00 0.00 39 1017.4
20260510213703 66 187 0.0 2.0 0.00 0.00 0.00 37 1017.3
20260510213200 67 292 2.0 6.0 0.00 0.00 0.00 37 1017.3
20260510212656 68 299 4.0 7.0 0.00 0.00 0.00 36 1017.1
20260510212154 68 95 4.0 7.0 0.00 0.00 0.00 37 1017.1
20260510211650 68 105 1.0 7.0 0.00 0.00 0.00 37 1017.1
20260510211145 68 35 3.0 4.0 0.00 0.00 0.00 37 1016.9
20260510210642 67 295 2.0 4.0 0.00 0.00 0.00 38 1017.1
20260510210137 68 30 1.0 2.0 0.00 0.00 0.00 37 1017.1
20260510205636 68 270 3.0 4.0 0.00 0.00 0.00 37 1017.0
20260510205132 68 264 3.0 6.0 0.00 0.00 0.00 36 1017.1
20260510204628 68 247 3.0 6.0 0.00 0.00 0.00 36 1017.1
20260510204125 68 102 1.0 3.0 0.00 0.00 0.00 38 1017.1
20260510203622 68 302 2.0 7.0 0.00 0.00 0.00 37 1017.2
20260510203119 68 243 2.0 4.0 0.00 0.00 0.00 37 1017.1
20260510202618 68 285 3.0 4.0 0.00 0.00 0.00 36 1017.0
20260510202114 68 348 3.0 4.0 0.00 0.00 0.00 37 1017.2
20260510201611 69 274 2.0 6.0 0.00 0.00 0.00 36 1017.1
20260510201108 69 20 3.0 4.0 0.00 0.00 0.00 38 1016.9
20260510200604 68 80 0.0 3.0 0.00 0.00 0.00 38 1017.2
20260510195600 68 285 1.0 6.0 0.00 0.00 0.00 37 1017.2
20260510195055 69 263 2.0 6.0 0.00 0.00 0.00 37 1017.1
20260510194550 69 273 1.0 3.0 0.00 0.00 0.00 38 1017.3
20260510194047 68 256 2.0 6.0 0.00 0.00 0.00 37 1017.1
20260510193547 69 273 3.0 3.0 0.00 0.00 0.00 36 1017.2
20260510193043 68 83 1.0 3.0 0.00 0.00 0.00 38 1017.2
20260510192543 68 274 2.0 6.0 0.00 0.00 0.00 39 1017.4
20260510192039 69 218 2.0 8.0 0.00 0.00 0.00 35 1017.6
20260510191536 68 298 1.0 4.0 0.00 0.00 0.00 37 1017.5
20260510191032 68 266 1.0 4.0 0.00 0.00 0.00 37 1017.5
20260510190530 68 237 1.0 4.0 0.00 0.00 0.00 36 1017.4
20260510190027 68 315 2.0 7.0 0.00 0.00 0.00 36 1017.2
20260510185524 69 239 2.0 4.0 0.00 0.00 0.00 38 1017.2
20260510185021 69 303 0.0 6.0 0.00 0.00 0.00 37 1017.0
20260510184519 68 171 0.0 2.0 0.00 0.00 0.00 38 1017.1
20260510184014 68 359 1.0 3.0 0.00 0.00 0.00 38 1017.1
20260510183509 69 332 5.0 6.0 0.00 0.00 0.00 37 1017.1
20260510183005 69 242 0.0 7.0 0.00 0.00 0.00 38 1017.2
20260510182502 69 147 1.0 4.0 0.00 0.00 0.00 38 1017.0
20260510181956 68 63 1.0 2.0 0.00 0.00 0.00 41 1017.1
20260510181455 67 173 2.0 4.0 0.00 0.00 0.00 41 1017.2
20260510180950 67 218 1.0 3.0 0.00 0.00 0.00 41 1017.1
20260510180448 68 286 2.0 6.0 0.00 0.00 0.00 40 1017.1
20260510175945 68 349 1.0 3.0 0.00 0.00 0.00 41 1017.2
20260510175441 68 328 1.0 6.0 0.00 0.00 0.00 41 1017.1
20260510174937 68 14 1.0 4.0 0.00 0.00 0.00 42 1017.0
20260510174435 67 254 2.0 6.0 0.00 0.00 0.00 43 1016.7
20260510173932 68 73 1.0 8.0 0.00 0.00 0.00 40 1016.7
20260510173427 68 92 1.0 3.0 0.00 0.00 0.00 38 1016.6
20260510172924 67 252 2.0 3.0 0.00 0.00 0.00 41 1016.8
20260510172420 67 282 5.0 8.0 0.00 0.00 0.00 38 1017.0
20260510171916 67 236 1.0 4.0 0.00 0.00 0.00 41 1016.9
20260510171414 68 78 2.0 7.0 0.00 0.00 0.00 36 1016.9
20260510170910 68 268 2.0 2.0 0.00 0.00 0.00 39 1016.8
20260510170407 68 295 2.0 4.0 0.00 0.00 0.00 40 1016.6
20260510165902 68 70 1.0 3.0 0.00 0.00 0.00 40 1016.8
20260510165358 68 71 2.0 7.0 0.00 0.00 0.00 38 1016.8
20260510164856 68 299 2.0 4.0 0.00 0.00 0.00 39 1016.8
20260510164353 68 207 2.0 4.0 0.00 0.00 0.00 38 1017.1
20260510163852 67 332 1.0 6.0 0.00 0.00 0.00 36 1017.1
20260510163349 67 128 0.0 4.0 0.00 0.00 0.00 38 1017.1
20260510162843 67 302 0.0 3.0 0.00 0.00 0.00 39 1017.0
20260510162341 67 318 2.0 6.0 0.00 0.00 0.00 37 1016.8
20260510161837 68 268 2.0 7.0 0.00 0.00 0.00 39 1017.1
20260510161333 67 194 1.0 2.0 0.00 0.00 0.00 38 1017.0
20260510160830 67 57 2.0 3.0 0.00 0.00 0.00 37 1017.0
20260510160327 67 281 2.0 3.0 0.00 0.00 0.00 38 1016.9
20260510155826 67 176 1.0 3.0 0.00 0.00 0.00 37 1016.8
20260510155323 68 359 1.0 4.0 0.00 0.00 0.00 37 1016.9
20260510154819 67 123 1.0 2.0 0.00 0.00 0.00 37 1016.8
20260510154315 66 333 1.0 2.0 0.00 0.00 0.00 37 1016.4
20260510153809 66 196 1.0 3.0 0.00 0.00 0.00 39 1016.8
20260510153306 66 37 2.0 3.0 0.00 0.00 0.00 41 1016.6
20260510152803 65 286 2.0 2.0 0.00 0.00 0.00 42 1016.5
20260510152259 65 278 2.0 4.0 0.00 0.00 0.00 42 1016.5
20260510151756 66 3 2.0 4.0 0.00 0.00 0.00 42 1016.5
20260510151254 65 321 1.0 3.0 0.00 0.00 0.00 44 1016.2
20260510150749 65 118 0.0 3.0 0.00 0.00 0.00 44 1016.2
20260510150245 65 92 1.0 1.0 0.00 0.00 0.00 43 1016.1
20260510145741 66 91 1.0 2.0 0.00 0.00 0.00 40 1016.2
20260510145238 65 183 0.0 3.0 0.00 0.00 0.00 43 1016.1
20260510144729 64 147 0.0 2.0 0.00 0.00 0.00 44 1016.0
20260510144227 64 72 2.0 3.0 0.00 0.00 0.00 43 1016.1
20260510143720 63 116 0.0 2.0 0.00 0.00 0.00 45 1016.0
20260510143217 64 337 3.0 4.0 0.00 0.00 0.00 45 1015.8
20260510142714 63 118 1.0 2.0 0.00 0.00 0.00 44 1015.6
20260510142210 64 1 1.0 6.0 0.00 0.00 0.00 44 1015.5
20260510141707 63 54 0.0 2.0 0.00 0.00 0.00 44 1015.6
20260510141206 62 278 2.0 3.0 0.00 0.00 0.00 46 1015.6
20260510140702 63 126 2.0 6.0 0.00 0.00 0.00 44 1015.3
20260510140201 63 75 1.0 2.0 0.00 0.00 0.00 46 1015.4
20260510135656 62 209 1.0 2.0 0.00 0.00 0.00 48 1015.4
20260510135152 61 104 1.0 3.0 0.00 0.00 0.00 47 1015.3
20260510134649 60 103 0.0 3.0 0.00 0.00 0.00 47 1015.5
20260510134147 61 77 3.0 4.0 0.00 0.00 0.00 46 1015.6
20260510133643 60 282 1.0 3.0 0.00 0.00 0.00 49 1015.4
20260510133138 59 20 1.0 2.0 0.00 0.00 0.00 52 1015.3
20260510132635 59 96 0.0 1.0 0.00 0.00 0.00 51 1015.2
20260510132133 58 234 0.0 1.0 0.00 0.00 0.00 52 1015.1
20260510131630 57 261 2.0 3.0 0.00 0.00 0.00 52 1015.1
20260510131127 57 95 0.0 4.0 0.00 0.00 0.00 53 1015.1
20260510130623 57 286 0.0 1.0 0.00 0.00 0.00 55 1015.1
20260510130121 57 89 0.0 2.0 0.00 0.00 0.00 55 1015.2
20260510125617 57 111 1.0 1.0 0.00 0.00 0.00 55 1015.2
20260510125114 57 86 0.0 0.0 0.00 0.00 0.00 58 1014.9
20260510124610 57 110 0.0 1.0 0.00 0.00 0.00 58 1014.8
20260510124107 56 244 2.0 2.0 0.00 0.00 0.00 59 1014.9
20260510123602 56 151 0.0 2.0 0.00 0.00 0.00 59 1014.7
20260510123059 56 249 0.0 3.0 0.00 0.00 0.00 61 1014.4
20260510122554 56 33 3.0 3.0 0.00 0.00 0.00 62 1014.4
20260510122051 56 7 0.0 1.0 0.00 0.00 0.00 62 1014.4
20260510121548 56 118 0.0 1.0 0.00 0.00 0.00 62 1014.4
20260510121045 56 163 0.0 0.0 0.00 0.00 0.00 64 1014.3
20260510120543 55 351 0.0 2.0 0.00 0.00 0.00 64 1014.0
20260510120038 55 247 0.0 0.0 0.00 0.00 0.00 66 1014.1
20260510115535 55 241 0.0 1.0 0.00 0.00 0.00 67 1014.1
20260510115032 55 23 0.0 1.0 0.00 0.00 0.00 67 1014.2
20260510114528 55 15 1.0 2.0 0.00 0.00 0.00 67 1014.3
20260510114024 55 181 0.0 0.0 0.00 0.00 0.00 67 1014.0
20260510113519 55 295 0.0 1.0 0.00 0.00 0.00 68 1013.9
20260510113017 55 357 0.0 1.0 0.00 0.00 0.00 68 1013.5
20260510112514 55 336 1.0 1.0 0.00 0.00 0.00 68 1013.6
20260510112010 55 8 0.0 1.0 0.00 0.00 0.00 67 1013.7
20260510111508 55 227 0.0 1.0 0.00 0.00 0.00 67 1013.7
20260510111003 55 276 2.0 2.0 0.00 0.00 0.00 67 1013.4
20260510110459 55 220 0.0 2.0 0.00 0.00 0.00 68 1013.2
20260510105955 55 215 0.0 0.0 0.00 0.00 0.00 67 1013.2
20260510105450 55 87 1.0 3.0 0.00 0.00 0.00 67 1012.8
20260510104946 55 208 0.0 2.0 0.00 0.00 0.00 67 1013.1
20260510104443 55 20 2.0 7.0 0.00 0.00 0.00 67 1013.2
20260510103939 55 262 2.0 4.0 0.00 0.00 0.00 67 1013.0
20260510103437 55 158 0.0 3.0 0.00 0.00 0.00 66 1012.8
20260510102937 56 357 2.0 2.0 0.00 0.00 0.00 66 1012.6
20260510102434 56 71 0.0 2.0 0.00 0.00 0.00 66 1012.3
20260510101931 56 141 0.0 3.0 0.00 0.00 0.00 65 1012.4
20260510101428 56 304 1.0 2.0 0.00 0.00 0.00 66 1012.5
20260510100926 56 322 3.0 3.0 0.00 0.00 0.00 65 1012.3
20260510100423 56 357 1.0 1.0 0.00 0.00 0.00 66 1012.4
20260510095919 57 284 1.0 1.0 0.00 0.00 0.00 66 1011.8
20260510095414 57 286 2.0 3.0 0.00 0.00 0.00 66 1011.9
20260510094913 57 356 0.0 6.0 0.00 0.00 0.00 65 1012.0
20260510094408 57 289 1.0 1.0 0.00 0.00 0.00 67 1012.0
20260510093905 57 355 1.0 1.0 0.00 0.00 0.00 67 1012.0
20260510093400 57 298 0.0 2.0 0.00 0.00 0.00 67 1011.7
20260510092857 57 292 1.0 3.0 0.00 0.00 0.00 66 1011.9
20260510092354 58 21 3.0 4.0 0.00 0.00 0.00 66 1011.8
20260510091849 58 264 0.0 6.0 0.00 0.00 0.00 66 1011.4
20260510091346 58 281 2.0 6.0 0.00 0.00 0.00 66 1011.3
20260510090843 58 255 0.0 2.0 0.00 0.00 0.00 66 1011.1
20260510090339 58 291 2.0 4.0 0.00 0.00 0.00 67 1011.2
20260510085836 59 264 0.0 3.0 0.00 0.00 0.00 68 1011.1
20260510085335 59 227 0.0 3.0 0.00 0.00 0.00 69 1010.9
20260510084832 59 273 2.0 2.0 0.00 0.00 0.00 68 1010.7
20260510084329 59 0 2.0 6.0 0.00 0.00 0.00 68 1010.5
20260510083826 59 287 1.0 1.0 0.00 0.00 0.00 69 1010.4
20260510083323 59 359 1.0 3.0 0.00 0.00 0.00 69 1010.5
20260510082818 59 299 2.0 3.0 0.00 0.00 0.00 70 1010.2
20260510082316 60 125 0.0 1.0 0.00 0.00 0.00 71 1010.2
20260510081814 59 263 2.0 3.0 0.00 0.00 0.00 72 1010.2
20260510081310 59 281 1.0 2.0 0.00 0.00 0.00 75 1010.2
20260510080806 59 331 0.0 2.0 0.00 0.00 0.00 76 1010.2
20260510080301 58 234 1.0 2.0 0.00 0.00 0.00 77 1010.0
20260510075759 58 350 0.0 0.0 0.00 0.00 0.00 77 1009.9
20260510075256 58 260 0.0 0.0 0.00 0.00 0.00 78 1010.1
20260510074753 58 229 0.0 1.0 0.00 0.00 0.00 77 1010.0
20260510074249 58 231 0.0 0.0 0.00 0.00 0.00 77 1009.9
20260510073745 59 231 0.0 0.0 0.00 0.00 0.00 76 1009.8
20260510073242 59 244 0.0 1.0 0.00 0.00 0.00 75 1009.9
20260510072737 59 284 0.0 1.0 0.00 0.00 0.00 75 1010.1
20260510072234 58 318 0.0 3.0 0.00 0.00 0.00 76 1010.2
20260510071731 59 189 0.0 0.0 0.00 0.00 0.00 76 1010.4
20260510071227 60 204 0.0 1.0 0.00 0.00 0.00 75 1010.0
20260510070726 60 188 0.0 1.0 0.00 0.00 0.00 72 1009.9
20260510070223 60 292 0.0 0.0 0.00 0.00 0.00 72 1009.8
20260510065717 59 313 0.0 1.0 0.00 0.11 0.11 72 1009.8
20260510065214 59 17 0.0 1.0 0.00 0.11 0.11 73 1009.9
20260510064711 59 287 0.0 1.0 0.00 0.11 0.11 73 1009.8
20260510064209 60 240 0.0 1.0 0.00 0.11 0.11 72 1009.8
20260510063705 61 190 0.0 0.0 0.00 0.11 0.11 72 1009.7
20260510063201 61 225 0.0 2.0 0.00 0.11 0.11 69 1009.9
20260510062658 61 250 0.0 1.0 0.00 0.11 0.11 68 1009.8
20260510062154 62 299 0.0 1.0 0.00 0.11 0.11 68 1009.7
20260510061649 62 269 0.0 1.0 0.00 0.11 0.11 68 1009.9
20260510061147 62 270 0.0 1.0 0.00 0.11 0.11 68 1009.9
20260510060643 62 259 0.0 2.0 0.00 0.11 0.11 68 1009.7
20260510060139 63 285 2.0 3.0 0.00 0.11 0.11 69 1009.8
20260510055636 62 194 2.0 6.0 0.00 0.11 0.11 70 1010.0
20260510055134 62 110 1.0 2.0 0.00 0.11 0.11 76 1010.1
20260510054629 62 219 1.0 4.0 0.00 0.11 0.11 74 1010.1
20260510054124 62 204 0.0 3.0 0.00 0.11 0.11 75 1010.1
20260510053619 63 189 4.0 8.0 0.00 0.11 0.11 73 1010.3
20260510053116 62 240 2.0 6.0 0.00 0.11 0.11 72 1010.1
20260510052611 60 205 1.0 4.0 0.00 0.11 0.11 76 1010.2
20260510052108 60 302 0.0 1.0 0.00 0.11 0.11 81 1009.9
20260510051603 60 210 0.0 2.0 0.00 0.11 0.11 81 1009.8
20260510051100 60 190 0.0 0.0 0.00 0.11 0.11 80 1009.6
20260510050557 60 192 0.0 0.0 0.00 0.11 0.11 80 1009.6
20260510050054 60 193 0.0 0.0 0.00 0.11 0.11 81 1009.5
20260510045546 60 188 0.0 0.0 0.00 0.11 0.11 79 1009.5
20260510045042 60 176 0.0 0.0 0.00 0.11 0.11 78 1009.6
20260510044539 60 176 0.0 0.0 0.00 0.11 0.11 78 1009.5
20260510044037 59 175 0.0 0.0 0.00 0.11 0.11 79 1009.5
20260510043532 59 176 0.0 0.0 0.00 0.11 0.11 79 1009.4
20260510043027 59 176 0.0 0.0 0.00 0.11 0.11 80 1009.2
20260510042522 59 173 0.0 0.0 0.00 0.11 0.11 80 1009.0
20260510042021 59 173 0.0 0.0 0.00 0.11 0.11 79 1009.0
20260510041519 58 174 0.0 0.0 0.00 0.11 0.11 79 1009.2
20260510041017 58 174 0.0 0.0 0.00 0.11 0.11 80 1009.1
20260510040513 58 177 0.0 0.0 0.00 0.11 0.11 81 1009.1
20260510040009 58 177 0.0 0.0 0.00 0.11 0.11 82 1008.9
20260510035506 58 176 0.0 0.0 0.00 0.11 0.11 83 1008.8
20260510035004 58 178 0.0 0.0 0.00 0.11 0.11 82 1008.9
20260510034504 59 179 0.0 0.0 0.00 0.11 0.11 81 1008.9
20260510033959 59 178 0.0 0.0 0.00 0.11 0.11 80 1008.7
20260510033455 59 178 0.0 0.0 0.00 0.11 0.11 80 1008.8
20260510032953 59 178 0.0 0.0 0.00 0.11 0.11 80 1008.8
20260510032450 59 186 0.0 0.0 0.00 0.11 0.11 78 1008.8
20260510031945 60 184 0.0 0.0 0.00 0.11 0.11 78 1008.6
20260510031441 60 179 0.0 0.0 0.00 0.11 0.11 77 1008.8
20260510030937 60 179 0.0 0.0 0.00 0.11 0.11 77 1008.6
20260510030432 60 177 0.0 0.0 0.00 0.11 0.11 76 1008.6
20260510025930 60 177 0.0 0.0 0.00 0.11 0.11 76 1008.6
20260510025427 60 183 0.0 0.0 0.00 0.11 0.11 77 1008.8
20260510024925 60 190 0.0 0.0 0.00 0.11 0.11 76 1008.8
20260510024421 60 170 0.0 0.0 0.00 0.11 0.11 77 1008.6
20260510023917 60 170 0.0 0.0 0.00 0.11 0.11 77 1008.6
20260510023413 60 170 0.0 0.0 0.00 0.11 0.11 76 1008.5
20260510022911 60 170 0.0 0.0 0.00 0.11 0.11 77 1008.6
20260510022410 60 170 0.0 0.0 0.00 0.11 0.11 77 1008.4
20260510021909 60 170 0.0 0.0 0.00 0.11 0.11 76 1008.2
20260510021407 61 178 0.0 0.0 0.00 0.11 0.11 76 1008.2
20260510020903 61 171 0.0 0.0 0.00 0.11 0.11 75 1008.3
20260510020358 61 158 0.0 0.0 0.00 0.11 0.11 75 1008.2
20260510015854 61 171 0.0 0.0 0.00 0.11 0.11 75 1008.3
20260510015350 61 172 0.0 0.0 0.00 0.11 0.11 74 1008.2
20260510014846 61 171 0.0 0.0 0.00 0.11 0.11 73 1008.1
20260510014343 62 171 0.0 0.0 0.00 0.11 0.11 72 1008.1
20260510013839 62 171 0.0 0.0 0.00 0.11 0.11 71 1008.0
20260510013335 62 171 0.0 0.0 0.00 0.11 0.11 71 1007.8
20260510012830 63 171 0.0 0.0 0.00 0.11 0.11 71 1007.7
20260510012329 63 171 0.0 0.0 0.00 0.11 0.11 70 1007.6
20260510011824 64 172 0.0 0.0 0.00 0.11 0.11 68 1007.6
20260510011320 64 171 0.0 0.0 0.00 0.11 0.11 67 1007.6
20260510010817 64 171 0.0 0.0 0.00 0.11 0.11 67 1007.4
20260510010314 64 171 0.0 0.0 0.00 0.11 0.11 68 1007.2
20260510005810 65 171 0.0 0.0 0.00 0.11 0.11 67 1007.3
20260510005307 65 174 0.0 0.0 0.00 0.11 0.11 65 1007.4
20260510004804 66 174 0.0 0.0 0.00 0.11 0.11 63 1007.2
20260510004302 66 173 0.0 0.0 0.00 0.11 0.11 62 1007.3
20260510003759 66 169 0.0 0.0 0.00 0.11 0.11 62 1007.2
20260510003256 66 169 0.0 0.0 0.00 0.11 0.11 61 1007.2
20260510002754 67 193 0.0 1.0 0.00 0.11 0.11 60 1007.1
20260510002252 67 157 0.0 0.0 0.00 0.11 0.11 58 1007.1
20260510001749 68 176 0.0 1.0 0.00 0.11 0.11 58 1007.0
20260510001247 68 194 0.0 0.0 0.00 0.11 0.11 58 1006.9
20260510000742 68 190 1.0 3.0 0.00 0.11 0.11 54 1006.9
20260510000241 69 189 0.0 0.0 0.00 0.11 0.11 55 1006.8
20260509235737 69 144 0.0 3.0 0.00 0.11 0.11 55 1006.7
20260509235233 69 217 0.0 1.0 0.00 0.11 0.11 54 1006.7
20260509234729 70 162 0.0 1.0 0.00 0.11 0.11 53 1006.6
20260509234226 70 211 1.0 1.0 0.00 0.11 0.11 52 1006.6
20260509233725 71 6 1.0 2.0 0.00 0.11 0.11 51 1006.5
20260509233222 71 276 4.0 4.0 0.00 0.11 0.11 50 1006.5
20260509232718 71 225 1.0 2.0 0.00 0.11 0.11 51 1006.7
20260509232215 71 225 1.0 3.0 0.00 0.11 0.11 51 1006.6
20260509231711 72 142 1.0 2.0 0.00 0.11 0.11 50 1006.6
20260509231209 73 211 0.0 1.0 0.00 0.11 0.11 49 1006.5
20260509230707 73 306 1.0 3.0 0.00 0.11 0.11 48 1006.4
20260509230203 74 226 0.0 2.0 0.00 0.11 0.11 48 1006.4
20260509225658 74 155 0.0 1.0 0.00 0.11 0.11 46 1006.3